This is the latest recevied weather packets stored in our database for station/object N2XP-2. If no packets are shown the sender has not sent any weather packets the latest 10 day(s).
| Time | Temp. | Humidity | Pressure | Rain* | Wind** | Luminosity | Snow |
|---|---|---|---|---|---|---|---|
| 1778103691 | 21.67° C | 73% | 1007.5 hPa | 0 mm | 0.45 m/s, 167° | - | - |
| 1778103392 | 21.67° C | 73% | 1007.4 hPa | 0 mm | 0.45 m/s, 330° | - | - |
| 1778103093 | 21.67° C | 74% | 1007.4 hPa | 0 mm | 1.34 m/s, 252° | - | - |
| 1778102789 | 21.67° C | 74% | 1007.4 hPa | 0 mm | 0.89 m/s, 212° | - | - |
| 1778102700 | 21.67° C | 74% | 1007.4 hPa | 0 mm | 0.45 m/s, 259° | - | - |
| 1778102489 | 21.67° C | 74% | 1007.4 hPa | 0 mm | 0.45 m/s, 259° | - | - |
| 1778102188 | 21.67° C | 74% | 1007.2 hPa | 0 mm | 0.45 m/s, 198° | - | - |
| 1778101885 | 21.67° C | 74% | 1007.2 hPa | 0 mm | 1.79 m/s, 224° | - | - |
| 1778101604 | 21.67° C | 75% | 1007 hPa | 0 mm | 1.34 m/s, 328° | - | - |
| 1778101595 | 21.67° C | 76% | 1007 hPa | 0 mm | 0.89 m/s, 197° | - | - |
| 1778101586 | 21.11° C | 76% | 1007.1 hPa | 0 mm | 1.79 m/s, 295° | - | - |
| 1778101586 | 21.67° C | 74% | 1007.1 hPa | 0 mm | 1.34 m/s, 201° | - | - |
| 1778101287 | 21.67° C | 74% | 1007.1 hPa | 0 mm | 1.79 m/s, 228° | - | - |
| 1778100984 | 21.67° C | 75% | 1007 hPa | 0 mm | 0.89 m/s, 214° | - | - |
| 1778100684 | 21.67° C | 75% | 1007 hPa | 0 mm | 0.45 m/s, 186° | - | - |
| 1778100386 | 21.67° C | 75% | 1007 hPa | 0 mm | 1.34 m/s, 328° | - | - |
| 1778100081 | 21.67° C | 76% | 1007 hPa | 0 mm | 0.89 m/s, 197° | - | - |
| 1778099782 | 21.11° C | 76% | 1007.1 hPa | 0 mm | 1.79 m/s, 295° | - | - |
| 1778099545 | 21.11° C | 77% | 1007.1 hPa | 0 mm | 1.79 m/s, 222° | - | - |
| 1778099509 | 21.11° C | 77% | 1007.3 hPa | 0 mm | 1.79 m/s, 281° | - | - |
| 1778099502 | 21.11° C | 77% | 1007.4 hPa | 0 mm | 1.79 m/s, 240° | - | - |
| 1778099483 | 21.11° C | 77% | 1007.1 hPa | 0 mm | 1.79 m/s, 222° | - | - |
| 1778099181 | 21.11° C | 77% | 1007 hPa | 0 mm | 1.34 m/s, 184° | - | - |
| 1778098882 | 21.11° C | 77% | 1007.2 hPa | 0 mm | 2.24 m/s, 172° | - | - |
| 1778098583 | 21.11° C | 77% | 1007.2 hPa | 0 mm | 1.79 m/s, 252° | - | - |
* Rain latest hour (hover to see other rain measurements)
** Current wind speed in m/s (hover to see current wind gust speed)